Location: Central Falls
(41.8900°N, 71.3929°W)
Time: 12:12:45
(UTC+00:00)

A-11 Canister half - Pass Details

Date: 12 December 2023
Orbit: 1526 x 1682 km, 47.3° (Epoch: 20 February)

Event Time Altitude Azimuth Distance (km) Brightness Sun altitude
Rises 21:27:02 0° 228° (SW) 4,882 13.7 -2.8°
Reaches altitude 10° 21:30:10 10° 226° (SW) 3,910 12.8 -3.4°
Maximum altitude 21:40:09 70° 146° (SE) 1,770 9.4 -5.0°
Drops below altitude 10° 21:50:13 10° 65° (ENE) 3,939 10.4 -6.7°
Enters shadow 21:50:56 - 65° (ENE) 4,160 10.5 -6.8°
Sets 21:53:22 0° 64° (ENE) 4,919 - -7.2°
